GFSCGP_925_rhum_156.txt.gz
RH
20 23 26 20 19 18 17 16 16 13 10 18 13 13 12 11 15 17 19 22 28 33 35 44 44 48 48 56 63 65 71 72 62 56 53 53 49 51 54 60 72 72 73 72
30 31 24 22 20 22 20 21 20 16 14 18 15 14 12 11 13 14 18 22 27 31 35 44 48 50 51 54 58 62 66 65 58 55 53 50 48 51 54 61 69 72 73 74
36 30 26 26 25 26 25 25 23 22 17 15 16 19 15 12 11 14 15 18 22 28 36 43 47 50 51 53 58 60 60 62 60 62 61 55 56 56 51 53 58 70 73 76
35 29 31 32 33 28 33 21 22 21 22 25 20 25 16 13 12 15 15 17 20 24 32 39 46 48 51 53 57 55 58 60 67 60 52 47 34 36 47 53 61 67 73 75
37 33 34 35 32 27 31 25 24 23 24 24 22 25 18 15 16 14 16 16 21 23 30 38 44 46 48 54 57 58 61 62 63 61 54 50 41 52 54 59 66 69 72 73
33 25 28 28 26 25 25 30 28 28 27 37 27 23 21 16 17 15 22 20 24 27 31 37 45 47 48 53 55 59 60 57 61 61 58 50 53 52 55 57 58 61 64 67
36 34 28 25 27 30 29 30 40 40 39 37 20 22 22 19 21 24 23 24 30 34 37 41 45 47 49 53 55 56 49 51 58 59 59 60 61 61 61 59 58 60 59 63
38 38 33 28 29 29 32 30 42 68 48 34 22 30 21 34 37 39 40 36 34 40 43 45 45 48 50 53 55 51 49 56 62 64 64 64 63 60 65 67 64 66 59 61
32 29 19 18 26 28 35 36 26 39 36 42 32 23 20 38 36 44 47 49 47 47 48 47 44 49 50 53 54 51 53 58 62 64 67 71 71 69 71 74 68 65 60 56
25 30 23 23 18 18 26 22 42 39 49 47 31 27 25 30 31 46 46 49 51 50 50 49 47 51 52 54 56 61 59 58 65 72 74 75 75 75 72 67 62 59 56 56
24 28 33 28 30 23 26 28 26 31 33 38 35 27 41 46 51 44 42 45 46 49 51 49 47 50 55 58 58 63 65 70 75 77 78 77 73 74 70 63 60 57 57 57
46 43 39 30 34 31 35 39 36 47 46 38 38 39 41 43 40 40 39 35 32 34 44 49 50 52 58 61 64 73 73 74 77 76 80 78 76 72 67 62 60 58 56 60
46 68 57 64 45 43 59 61 58 54 52 49 59 60 36 37 44 48 50 44 34 32 45 54 55 60 62 65 69 70 75 73 77 79 77 78 75 68 66 62 60 57 57 59
51 73 93 89 93 72 87 84 96 97 92 84 79 74 48 47 57 54 49 39 36 32 36 48 57 62 65 67 71 72 74 73 77 76 74 80 73 69 64 63 58 57 57 58
48 60 68 69 74 75 74 68 73 90 80 93 52 73 48 39 39 47 42 38 37 36 33 40 52 58 64 69 71 70 74 80 82 74 80 84 80 76 72 68 63 61 59 60
45 62 53 56 46 55 61 49 45 44 48 57 56 54 37 34 31 34 34 40 45 42 38 33 34 45 56 62 67 69 77 82 80 86 91 91 89 84 81 73 71 67 68 72
49 57 57 57 36 41 52 39 35 34 35 42 56 35 23 26 31 32 30 30 31 28 33 44 61 61 61 65 72 79 87 87 90 94 100 95 97 98 96 84 70 73 89 83
45 52 49 55 44 85 31 24 29 31 28 30 33 28 23 25 26 27 29 28 29 43 50 68 70 70 72 74 80 88 88 94 98 100 100 98 97 99 94 93 98 98 100 98
35 39 53 65 46 35 29 28 43 43 32 25 30 26 22 23 32 24 44 52 62 79 100 96 96 87 84 87 92 94 97 100 100 100 100 98 97 98 97 96 98 98 100 100
35 40 54 46 58 59 37 24 24 26 42 20 21 24 23 32 41 37 56 62 74 83 99 99 99 98 100 99 100 100 100 100 100 100 99 96 96 94 94 94 96 98 99 99
55 60 68 57 58 44 26 24 26 49 33 24 24 31 42 47 42 76 86 98 91 94 97 95 100 99 99 100 100 100 100 100 100 99 97 97 97 97 93 96 99 98 98 96
51 59 63 60 68 68 27 33 40 30 40 32 35 37 41 45 95 98 100 99 95 87 82 83 95 100 100 100 100 100 100 100 100 98 97 98 98 86 94 97 100 99 96 90
61 43 51 44 45 32 36 30 30 32 26 36 31 33 37 78 95 98 100 99 96 84 74 80 85 96 100 100 100 100 100 98 99 100 99 98 95 91 98 97 97 92 90 79
38 34 42 44 34 38 38 31 30 33 30 26 36 35 44 97 96 98 100 99 91 77 75 78 87 95 98 100 100 100 98 98 98 98 95 88 90 94 94 91 92 85 82 74
39 38 38 37 30 35 31 30 29 32 39 39 36 40 58 82 97 94 97 91 77 75 77 79 84 87 92 99 100 100 100 99 98 97 92 86 87 90 93 87 86 84 88 77
41 44 47 50 32 39 30 25 30 35 37 40 33 63 71 54 74 72 95 90 82 78 77 77 80 82 87 93 97 99 100 99 97 95 90 88 90 93 91 91 96 95 94 72

GFSCGP_925_rhum_162.txt.gz
RH
22 27 30 26 23 21 20 20 20 16 14 14 13 12 10 9 9 9 9 11 12 13 14 24 34 35 35 50 55 59 64 66 63 60 54 49 47 46 53 63 66 65 63 61
26 30 21 19 19 19 20 22 22 18 15 16 16 16 13 11 11 10 10 11 11 12 14 30 39 38 36 52 55 60 67 66 61 54 49 47 44 46 54 62 66 67 66 61
30 25 20 21 22 23 23 26 26 24 19 18 20 21 17 13 12 11 11 10 11 12 13 36 42 43 40 49 56 59 65 65 57 48 46 42 43 48 56 62 63 68 69 69
28 22 24 25 26 26 32 22 23 23 25 31 19 28 19 15 14 12 12 12 12 12 13 37 43 43 44 46 55 56 61 63 55 47 48 46 49 49 50 50 62 68 68 70
36 31 30 33 30 26 30 24 26 27 31 33 29 29 23 16 16 14 12 13 13 13 15 36 42 42 44 46 52 54 57 57 51 50 48 46 40 42 45 54 62 66 68 68
33 25 26 27 25 24 23 28 29 30 34 46 32 29 26 20 17 15 12 13 13 15 16 34 38 40 43 45 50 53 53 51 53 56 49 46 46 46 52 59 62 63 64 67
39 36 28 25 30 25 26 32 46 48 51 52 26 27 25 20 18 18 18 17 20 22 26 38 40 40 43 47 51 53 52 50 55 56 52 49 46 45 52 56 54 55 58 65
35 38 30 25 30 31 29 32 47 60 53 38 28 35 31 30 28 30 27 25 28 32 37 38 39 40 42 49 52 52 53 52 54 57 54 49 47 48 54 53 54 53 53 60
32 27 19 20 21 24 32 36 27 42 40 54 39 29 38 34 34 36 35 36 40 41 40 36 39 40 41 49 52 54 54 54 55 54 54 56 55 56 56 58 54 53 55 61
26 38 22 18 18 20 27 24 40 62 90 59 38 31 47 38 37 37 38 42 42 40 40 43 40 42 42 46 51 54 51 49 52 55 58 60 59 60 65 62 57 53 46 54
26 32 30 21 22 23 20 30 32 33 70 77 62 43 43 45 43 40 36 33 34 38 41 41 40 40 43 48 54 55 51 51 56 60 63 65 68 70 66 61 61 51 53 55
40 40 44 32 23 25 27 28 26 48 53 46 70 66 37 36 36 41 42 36 31 28 31 37 40 40 44 49 54 55 53 56 64 66 69 72 72 69 67 62 56 57 53 51
40 57 52 39 30 29 50 53 50 53 46 53 62 51 37 39 44 35 37 34 34 31 28 34 37 43 45 51 55 58 58 66 70 71 76 76 82 82 71 69 66 66 55 51
42 52 60 55 79 85 97 78 62 75 88 80 67 54 52 55 56 45 42 38 32 35 32 32 41 44 46 52 55 62 66 68 73 80 93 94 88 82 84 87 69 55 56 50
43 50 43 40 39 70 71 75 73 77 74 92 61 56 48 41 37 40 37 30 30 30 33 34 42 50 51 54 65 72 76 78 88 96 96 95 88 90 89 78 57 56 64 54
42 59 45 47 36 44 70 52 44 46 49 55 52 53 37 30 27 27 26 24 24 26 26 27 28 32 54 57 59 67 75 82 90 94 95 96 94 93 86 67 92 66 56 57
63 61 56 66 40 38 57 50 37 32 32 34 47 37 30 27 24 24 25 24 23 24 26 27 37 37 38 49 58 63 69 81 84 79 99 97 94 90 93 97 84 64 70 69
60 68 68 72 52 84 45 27 34 35 24 21 22 19 20 19 19 17 18 22 33 48 46 49 59 61 58 60 57 65 71 76 81 96 99 94 94 98 98 98 98 80 82 85
46 56 67 78 71 48 34 27 29 28 29 20 19 19 16 15 17 20 35 43 54 66 96 84 75 78 72 68 68 74 83 90 97 100 99 100 97 99 99 98 97 97 86 90
40 49 64 87 80 78 51 28 21 21 67 37 26 25 21 19 40 64 48 50 63 76 89 98 98 91 79 77 87 84 95 97 100 100 99 99 98 97 97 96 97 92 90 92
58 61 74 78 73 52 28 20 20 42 39 18 17 18 18 26 50 62 65 75 70 92 86 75 98 88 90 85 90 100 100 100 99 100 100 100 100 100 97 96 97 93 96 94
52 78 74 69 82 80 27 24 52 48 35 24 22 20 24 72 96 100 99 97 73 63 58 65 72 96 93 98 91 100 100 100 100 100 100 100 98 98 97 96 96 95 95 94
68 57 78 58 58 38 28 33 28 31 29 26 26 21 22 86 97 100 96 99 87 65 54 51 53 94 99 99 99 99 100 99 100 100 100 100 98 97 97 97 97 97 95 95
50 39 57 70 65 67 53 42 25 22 22 20 22 21 30 98 99 99 96 91 84 65 56 51 56 84 94 99 100 100 99 100 100 100 99 99 97 97 97 97 97 97 92 88
91 99 100 83 62 73 58 73 62 21 22 20 20 21 40 58 73 79 84 72 67 53 50 52 56 67 80 92 99 99 100 100 100 100 99 99 98 98 97 97 96 97 85 80
50 67 91 88 64 86 52 29 25 27 24 22 23 29 32 32 54 51 57 68 57 55 51 55 56 60 72 87 100 100 99 100 100 99 99 98 98 98 98 98 97 96 87 82

GFSCGP_925_rhum_165.txt.gz
RH
30 41 44 34 32 32 32 32 32 25 20 20 21 19 16 13 14 14 14 15 19 24 36 42 47 51 65 65 63 65 68 68 63 60 56 51 51 54 58 60 56 52 56 57
35 41 32 27 27 29 31 33 32 26 22 23 26 26 21 18 14 13 15 14 17 17 21 46 44 57 64 66 67 67 67 65 61 58 53 49 51 56 58 62 61 59 57 58
45 33 26 26 27 28 28 31 32 32 26 25 27 27 25 20 18 15 15 12 13 16 26 50 51 62 65 68 70 68 66 64 61 55 51 48 51 58 64 65 66 63 59 57
36 28 29 29 31 27 34 26 30 32 37 45 30 49 28 23 21 18 16 14 13 15 33 50 53 64 65 68 69 65 65 63 58 55 55 47 58 63 61 64 66 68 66 67
38 36 38 39 35 31 38 30 33 35 42 47 37 45 34 24 24 20 24 19 16 12 44 51 49 60 67 66 68 66 64 61 56 56 48 44 49 48 59 65 66 66 70 69
47 35 34 34 30 29 28 30 34 38 42 58 42 41 39 32 33 37 33 37 40 28 50 51 49 55 63 65 66 66 64 61 59 49 46 45 45 56 62 65 66 68 67 64
50 46 37 34 42 34 31 40 62 65 62 68 36 41 37 44 44 41 42 43 44 51 53 54 54 56 60 64 62 62 61 62 54 51 50 47 50 52 55 61 65 66 63 62
64 62 42 34 41 44 40 38 70 84 75 56 41 51 45 44 43 41 43 44 43 47 50 54 57 57 62 59 56 55 58 60 56 54 56 52 49 50 52 59 62 58 57 58
46 40 25 23 24 29 42 47 36 48 50 61 56 46 43 44 45 49 50 50 51 49 50 52 53 56 62 62 57 55 57 59 58 58 54 50 52 55 58 58 55 56 56 54
34 45 29 21 20 21 31 28 72 81 99 95 61 50 68 53 51 50 50 50 50 48 52 59 56 57 57 57 55 54 55 58 57 56 54 56 57 58 57 54 53 53 52 57
30 39 39 30 26 26 27 35 41 66 89 99 96 75 49 56 55 51 45 42 42 49 51 49 53 53 53 54 54 54 54 57 58 58 60 60 62 61 60 58 54 48 52 56
41 48 57 42 31 27 33 47 52 75 71 73 76 77 43 46 44 47 46 41 39 36 38 48 48 54 57 61 56 54 54 56 59 60 63 63 64 64 61 58 56 57 60 59
50 65 67 50 35 50 67 61 55 61 65 72 81 80 48 49 52 47 44 40 39 38 37 40 48 56 60 64 60 59 56 61 62 63 63 66 66 64 61 63 74 82 78 75
44 57 65 66 67 82 92 78 67 77 95 97 83 70 67 59 56 53 48 44 44 41 43 42 50 63 62 63 62 61 63 62 64 66 67 69 70 68 78 91 89 90 99 82
57 71 56 55 52 74 79 78 79 85 71 86 64 66 50 46 57 57 49 43 43 40 39 42 54 60 64 65 65 65 66 67 66 69 73 77 80 92 97 93 100 99 98 67
56 73 57 59 46 44 74 68 66 72 73 73 66 64 45 41 39 37 32 34 37 35 33 37 44 55 63 69 72 70 71 71 69 80 88 93 98 99 96 99 99 99 97 98
81 75 74 74 55 55 66 62 62 61 53 57 76 57 44 42 40 38 34 32 29 48 41 53 62 59 60 64 63 74 77 76 84 90 100 97 94 99 100 99 99 99 99 83
94 91 92 86 73 93 54 38 35 48 45 39 37 35 32 31 32 30 29 49 58 60 67 75 80 80 70 64 64 71 80 86 89 98 100 93 100 100 98 99 99 100 98 95
70 86 99 97 94 65 53 42 46 51 53 40 40 30 24 21 23 55 60 61 68 79 98 84 73 74 76 71 72 74 81 87 94 100 98 99 99 99 99 98 99 99 98 98
64 64 86 99 93 87 57 38 31 43 65 33 35 37 40 26 45 81 71 74 81 77 78 95 78 82 80 82 77 80 87 92 100 100 97 98 100 100 100 98 98 98 98 97
84 75 84 92 91 78 45 33 30 67 48 34 39 39 42 41 53 73 79 76 78 81 77 82 92 92 92 93 89 100 100 100 99 100 100 100 100 100 99 98 98 97 97 92
58 86 96 76 82 84 39 34 48 42 35 29 26 25 68 87 100 97 98 89 84 83 79 86 90 88 86 86 89 98 99 99 99 100 100 100 100 100 100 99 98 97 96 96
77 66 70 75 92 60 53 59 48 43 35 36 38 37 70 84 88 97 99 99 87 75 67 68 84 94 97 89 94 97 98 100 100 100 100 100 100 98 98 97 97 98 97 97
71 75 93 92 62 53 51 48 55 62 63 45 43 39 74 99 98 97 98 98 89 84 75 64 91 100 99 98 99 100 100 100 100 100 100 100 97 98 97 97 97 98 97 97
81 72 83 83 74 83 69 77 72 68 59 67 63 43 67 82 95 86 87 88 89 82 70 61 86 93 93 94 96 99 100 100 100 100 100 100 98 98 98 98 97 98 97 94
59 66 84 73 58 80 72 71 75 88 74 57 56 48 64 63 77 76 85 84 82 77 60 60 65 79 88 94 90 99 99 100 100 100 100 100 98 99 99 98 97 96 90 94

GFSCGP_925_rhum_168.txt.gz
RH
31 46 51 42 35 35 36 38 40 33 27 29 27 28 25 21 14 15 17 17 40 58 54 62 70 82 91 89 88 81 72 68 67 65 62 61 59 58 53 48 58 56 52 45
37 44 37 32 33 36 37 41 42 34 28 28 31 33 28 24 20 16 14 16 19 40 55 67 70 76 82 83 83 81 76 70 67 64 61 57 57 59 55 54 58 61 59 55
45 38 30 34 37 38 37 40 39 37 31 31 33 33 30 24 22 20 17 15 15 20 34 65 66 76 77 81 84 82 75 70 66 62 56 55 56 62 65 65 62 64 63 61
43 34 38 41 38 34 41 30 32 34 42 50 34 55 38 31 29 26 38 45 30 18 32 59 68 75 75 80 81 79 74 68 62 57 53 55 65 65 62 64 64 64 62 65
46 36 42 46 41 34 40 37 38 41 46 48 43 53 41 29 31 45 47 50 57 50 51 60 69 70 74 82 80 80 74 66 60 56 51 54 54 51 60 64 64 65 65 60
53 39 46 43 40 37 37 36 37 40 49 62 50 50 52 54 51 51 53 59 65 55 57 63 68 72 78 80 79 75 69 67 60 56 51 48 48 56 66 66 64 66 64 64
54 53 45 42 52 43 45 42 92 71 75 70 44 49 46 49 55 55 57 60 63 64 67 76 79 75 79 82 77 73 70 71 66 60 57 52 49 51 56 62 60 62 63 61
70 80 52 42 48 52 50 48 87 82 80 65 43 57 50 49 54 53 50 56 58 62 63 66 73 78 81 76 71 72 78 70 63 52 53 47 47 52 56 57 57 58 59 56
69 67 31 31 37 43 52 55 51 66 71 81 61 52 52 58 59 58 56 59 66 65 63 61 71 80 82 81 79 77 75 72 58 53 50 56 56 59 65 62 58 59 58 58
46 51 31 23 22 24 37 41 69 97 98 97 73 56 68 62 61 53 61 67 75 71 68 63 66 71 74 72 65 64 63 62 63 59 58 59 58 58 58 59 61 59 59 57
38 43 42 31 29 30 35 60 79 88 98 98 96 86 53 66 58 54 48 60 65 67 66 71 69 63 63 64 66 67 66 64 60 57 55 56 58 59 62 63 59 57 55 55
42 54 58 42 34 29 41 55 77 98 99 96 89 85 50 57 56 54 48 44 46 55 60 60 61 63 66 64 63 61 60 59 58 57 57 58 58 57 56 55 54 53 54 57
44 64 68 54 40 50 60 59 60 67 74 77 88 83 54 51 51 46 44 39 40 41 44 53 62 66 69 66 64 63 61 60 60 61 61 62 62 62 60 55 50 52 59 59
46 59 64 65 63 71 79 72 64 71 95 96 91 74 62 61 59 56 54 48 44 44 41 46 58 73 69 68 66 64 64 61 61 62 61 62 62 63 61 61 64 67 72 87
48 63 66 61 53 66 68 71 75 75 60 80 53 71 54 59 63 61 53 40 43 45 45 49 55 74 72 72 69 67 67 66 64 64 65 66 67 66 63 60 76 92 99 100
61 70 64 59 52 67 75 66 58 66 64 69 61 66 48 46 44 56 52 50 48 45 44 43 52 68 71 71 71 69 68 69 66 68 73 76 77 72 75 95 99 100 99 98
84 73 75 67 53 59 81 64 64 60 66 66 84 58 44 54 52 47 43 40 39 44 46 52 58 70 69 69 68 69 71 75 77 78 82 86 84 90 100 100 99 99 99 98
96 93 85 79 72 93 50 33 38 54 51 57 56 53 49 46 46 43 41 42 52 59 73 79 82 73 68 66 71 75 77 80 82 86 89 88 90 99 99 99 100 99 99 100
75 98 99 95 79 57 61 46 52 53 49 49 54 48 43 35 41 50 64 56 58 65 86 83 75 73 70 69 68 70 79 85 88 95 94 90 94 100 100 100 100 100 99 98
64 92 99 99 97 87 60 45 39 45 73 44 47 46 45 38 49 66 66 65 76 86 88 84 80 80 78 80 77 86 94 96 99 100 98 95 98 100 100 100 100 99 99 98
92 92 97 96 94 94 66 36 40 66 59 31 40 40 43 50 45 49 82 75 76 78 81 95 100 100 100 89 88 100 100 100 100 100 100 100 100 100 100 100 100 99 98 98
61 90 96 97 96 91 64 45 54 54 42 32 36 46 47 53 81 84 88 85 84 82 96 91 100 100 97 92 92 100 100 100 100 100 100 100 100 100 100 99 99 99 98 97
69 64 84 77 92 69 67 77 65 70 66 61 49 38 65 88 98 99 97 90 85 80 81 79 78 94 94 93 90 99 96 99 100 100 100 100 100 100 100 99 98 98 97 97
70 71 84 86 69 66 50 60 56 54 72 79 64 53 76 81 87 86 88 90 87 84 82 80 90 99 99 100 93 86 92 97 100 100 100 100 100 99 99 98 97 97 98 97
73 76 83 82 64 56 46 42 44 54 56 76 71 65 74 76 80 74 78 83 79 80 80 79 90 99 100 96 96 90 95 100 100 100 100 100 100 98 98 98 97 97 96 93
63 63 82 79 56 70 60 51 56 61 56 67 81 77 71 70 70 71 76 71 72 77 74 83 88 90 91 93 92 90 98 100 99 100 100 100 100 98 99 98 98 98 94 96

GFSCGP_925_rhum_174.txt.gz
RH
56 59 62 45 38 30 45 47 48 42 36 39 42 40 37 31 32 33 32 24 41 89 77 74 77 92 100 100 99 98 100 100 98 100 100 95 87 83 79 75 71 66 62 58
47 71 46 37 35 44 50 56 56 44 37 40 46 43 34 31 30 30 30 44 44 28 45 80 78 88 99 99 95 100 100 100 100 100 97 91 83 73 69 66 64 61 58 53
54 46 43 50 52 57 56 57 53 49 41 40 44 49 43 34 32 36 48 55 56 65 61 45 88 89 95 99 100 100 100 100 100 98 92 86 77 70 72 70 65 63 59 54
58 44 42 51 50 49 57 43 42 46 49 60 39 66 42 34 35 41 63 74 79 83 87 71 70 87 91 96 100 100 100 100 100 95 90 82 79 84 74 70 72 65 61 57
52 49 53 48 43 40 45 40 45 45 51 58 57 68 53 41 44 44 68 76 85 95 98 94 78 96 99 100 100 100 100 100 99 95 89 89 92 84 77 77 66 66 65 61
62 41 43 45 41 40 43 50 53 53 58 83 63 63 47 47 44 61 69 77 88 97 97 93 96 99 100 100 100 100 100 100 99 93 88 85 81 79 76 68 64 68 67 65
62 60 57 46 56 53 54 67 85 86 83 81 54 63 46 54 59 62 74 80 92 96 97 97 95 96 99 100 98 97 97 99 92 91 92 91 89 84 68 65 62 64 66 68
90 83 58 58 54 57 70 69 87 86 89 80 58 72 56 64 64 67 70 78 89 96 96 96 92 94 99 100 99 94 93 91 92 94 95 95 89 80 74 67 63 61 60 60
89 86 50 51 47 50 56 66 55 75 75 92 77 64 61 66 69 72 78 80 88 94 94 95 95 98 97 94 90 81 79 84 82 73 82 90 92 92 89 77 70 61 61 63
56 75 53 40 46 50 54 49 74 82 98 95 82 79 73 84 81 76 82 84 79 81 89 92 93 91 90 93 88 79 68 63 67 79 84 93 94 94 85 77 77 71 69 67
56 60 57 34 49 68 67 66 78 78 91 87 84 82 61 74 76 82 84 80 76 79 85 90 90 87 90 93 92 93 91 80 86 88 95 98 95 92 85 81 78 77 73 70
59 67 72 58 37 40 49 64 67 91 92 98 90 85 65 72 72 74 66 59 58 68 78 84 86 87 91 92 90 90 86 82 83 91 94 96 92 87 86 83 80 77 71 66
67 77 97 81 46 47 50 68 69 72 87 98 96 89 61 61 62 57 59 58 58 61 62 70 80 88 88 88 89 90 92 94 94 96 96 90 84 80 77 76 73 69 64 60
69 79 77 76 69 67 74 67 70 69 94 96 90 79 73 68 62 61 65 58 59 55 52 58 71 83 82 82 84 88 91 93 92 86 76 74 72 72 74 74 71 67 62 58
90 100 90 86 76 74 91 74 74 77 70 78 82 79 74 71 66 60 54 54 52 54 52 52 52 76 84 80 78 78 80 82 79 73 71 69 68 67 68 68 66 62 59 59
96 99 100 97 84 100 100 98 94 96 78 68 75 68 48 47 52 56 54 54 53 57 59 53 52 62 84 80 77 75 76 75 72 68 67 65 63 62 62 60 59 62 66 65
99 98 98 96 88 94 98 92 87 72 66 61 83 64 44 55 56 56 55 55 60 63 59 57 57 62 68 75 73 72 72 73 73 73 73 72 69 68 67 69 72 71 71 75
100 98 91 94 84 96 64 66 64 71 64 54 51 43 39 41 50 45 47 55 64 62 60 59 60 59 55 62 72 71 72 75 76 78 77 76 75 74 79 77 75 76 82 93
94 96 99 96 84 56 57 55 57 72 68 68 57 52 47 53 50 53 52 55 54 59 68 61 47 48 53 64 71 74 79 78 80 82 86 85 81 87 89 86 84 86 98 100
71 88 98 97 97 93 65 67 62 44 70 86 79 82 80 59 80 63 51 59 63 66 64 72 56 64 69 78 75 78 85 85 86 84 85 90 86 80 84 82 87 98 100 99
93 97 94 90 95 97 86 68 68 76 94 75 79 78 81 88 76 79 78 65 70 74 79 91 91 80 79 80 79 86 89 89 80 85 98 100 100 95 89 94 99 100 100 100
70 96 96 92 96 92 67 62 88 96 90 75 68 67 77 83 87 88 83 77 77 84 99 99 98 100 100 95 86 100 100 95 96 100 100 99 99 100 99 99 100 100 100 100
78 65 80 86 88 78 67 55 70 82 73 65 65 54 62 81 85 86 87 85 86 88 98 97 96 100 98 100 100 100 99 99 99 100 99 100 100 100 100 100 100 100 100 100
58 59 71 62 48 54 64 56 67 66 66 57 52 52 53 82 86 88 87 89 88 91 97 99 98 97 99 100 99 99 99 99 100 100 100 99 100 100 100 100 100 100 100 100
69 63 58 60 50 49 42 40 39 40 49 71 65 58 64 77 79 85 86 87 88 86 87 97 98 97 97 98 98 96 96 98 99 99 100 100 100 100 100 100 99 100 99 97
48 50 70 67 45 51 47 38 40 46 50 48 49 48 56 68 76 82 86 86 83 84 86 87 89 92 98 99 98 97 97 97 98 99 100 100 100 100 100 100 100 99 98 98

GFSCGP_925_rhum_177.txt.gz
RH
55 45 48 34 32 21 29 40 40 38 31 37 35 36 30 27 27 26 26 26 21 23 44 66 76 87 93 96 98 100 100 100 100 100 100 100 97 90 84 87 83 80 75 70
58 62 37 33 32 36 35 37 38 36 36 40 36 36 30 28 27 26 26 28 36 39 38 42 75 88 94 91 98 100 100 100 100 99 99 99 96 91 88 80 77 72 69 66
49 40 43 42 39 41 40 42 40 43 38 35 38 36 32 30 30 28 42 47 52 57 56 52 46 75 92 92 98 100 100 98 100 100 100 97 93 91 84 80 75 67 63 60
57 47 48 51 50 43 52 42 43 48 47 50 36 52 36 31 30 33 48 58 64 73 77 70 60 52 81 91 96 100 100 100 100 100 100 98 92 89 88 75 69 64 61 58
54 50 55 55 46 45 46 41 44 42 45 50 46 54 35 38 37 32 43 60 75 87 87 90 88 98 100 100 100 100 100 100 100 100 100 99 99 94 86 79 76 82 84 74
58 48 46 45 42 38 38 41 50 50 51 68 50 51 40 34 36 39 59 69 83 89 86 92 96 99 100 100 100 100 100 100 99 99 98 99 98 98 99 100 98 90 91 87
66 61 50 42 45 46 41 50 72 77 79 73 47 54 43 39 48 53 61 74 84 89 86 89 88 94 99 100 100 100 99 100 98 97 96 94 93 96 97 96 94 87 86 76
75 58 58 48 47 49 50 49 64 77 73 61 54 61 42 59 63 66 67 76 84 88 91 87 87 92 98 100 99 93 91 95 90 87 83 89 89 88 91 89 87 83 83 83
75 74 53 50 45 42 60 63 44 60 67 75 52 44 50 63 68 70 74 80 86 88 90 93 93 93 91 89 90 81 83 84 79 84 89 86 87 86 88 92 96 94 97 96
57 66 50 45 48 46 46 43 71 82 94 87 51 59 49 71 70 72 77 79 81 82 85 87 91 90 85 83 84 90 82 81 80 82 90 96 93 89 98 97 99 96 89 78
54 58 53 37 56 57 61 64 67 69 84 72 60 47 54 55 62 71 71 74 74 75 78 82 84 84 86 87 87 90 92 91 82 76 76 83 90 96 98 96 92 89 86 80
61 68 74 59 40 41 51 54 61 81 84 96 71 57 55 58 60 67 69 68 66 66 70 75 76 83 84 85 86 90 92 92 87 89 92 98 100 100 98 94 92 92 90 87
58 80 83 58 52 47 47 53 57 59 68 81 89 63 55 62 64 65 64 52 48 54 63 68 74 78 82 83 86 90 96 93 88 91 93 97 97 95 93 93 94 93 90 82
65 73 77 62 67 68 73 55 67 68 90 80 93 64 64 66 67 65 59 45 45 48 50 57 65 69 75 80 84 89 95 96 88 90 96 97 96 91 90 89 88 85 78 66
76 86 79 72 71 75 84 86 80 79 73 98 70 74 55 57 60 59 46 46 49 50 51 51 57 63 70 78 85 88 91 93 94 94 95 90 84 80 77 76 76 73 67 65
94 100 99 96 76 99 100 94 80 84 86 95 86 89 50 48 50 63 64 46 51 51 48 44 46 48 64 72 76 84 88 89 91 92 86 77 74 74 73 74 74 73 70 65
100 100 99 92 74 88 99 89 80 68 64 90 99 77 64 64 55 59 53 45 44 48 46 44 47 46 48 63 75 80 84 83 87 85 78 73 71 72 75 76 77 74 68 65
94 98 93 86 83 96 46 40 50 61 58 64 70 73 64 61 61 68 56 48 46 52 51 50 48 50 49 57 75 78 85 86 85 81 75 73 74 72 73 73 69 69 68 69
87 88 95 96 80 52 48 59 68 68 69 75 63 60 62 63 52 54 51 58 62 60 70 61 56 56 54 61 75 83 88 89 88 84 78 72 68 70 73 72 72 71 72 75
79 90 95 92 95 95 84 62 58 57 85 76 64 65 63 59 77 66 58 69 73 70 65 75 59 54 58 61 76 85 93 93 90 88 80 76 75 76 78 75 76 76 76 86
89 91 94 87 92 85 82 64 61 84 93 80 63 54 51 45 49 56 72 74 70 75 72 70 78 74 63 68 84 91 97 96 88 89 90 92 88 86 90 93 95 87 93 99
62 78 89 92 93 91 81 52 76 78 92 85 65 54 57 54 63 96 89 85 72 68 68 73 91 98 96 85 86 94 95 94 88 91 99 100 100 99 100 99 99 99 100 100
64 50 53 56 54 55 59 59 54 61 62 74 67 56 60 62 74 83 87 85 74 69 69 82 98 99 98 99 97 100 100 99 99 100 100 100 99 99 99 100 100 100 100 100
52 48 60 54 41 40 46 40 40 43 59 55 52 53 62 89 87 82 84 77 71 66 70 82 92 98 99 100 99 100 99 99 100 100 100 100 100 100 100 100 100 100 100 100
56 52 54 57 46 42 37 36 37 35 37 46 54 54 55 57 55 54 60 63 64 68 74 87 96 93 98 99 100 99 99 100 100 100 100 100 100 100 100 100 99 100 100 98
43 45 60 54 36 45 43 35 34 38 36 36 38 43 57 49 49 46 58 64 74 75 74 83 96 97 98 100 100 100 100 100 100 100 100 100 100 100 100 100 100 100 100 99

GFSCGP_925_rhum_180.txt.gz
RH
40 31 32 23 22 23 21 20 21 17 16 21 22 20 19 18 20 21 20 19 17 17 15 26 34 39 53 60 77 84 98 96 97 100 100 100 100 99 100 100 100 100 99 94
46 42 28 24 25 24 25 25 24 20 18 25 26 26 23 21 21 20 20 20 18 19 22 25 39 48 59 67 80 89 100 100 100 100 100 100 100 100 100 100 100 96 91 84
46 31 31 32 33 31 28 30 29 28 24 24 28 28 20 21 21 20 19 21 22 28 31 33 35 42 58 72 81 95 100 100 100 100 100 100 100 100 96 92 90 87 83 82
41 34 38 36 42 35 42 30 32 36 38 42 27 41 26 20 22 21 25 32 33 40 44 45 45 38 39 68 84 99 100 100 100 100 100 100 100 98 98 100 93 88 88 91
43 39 42 45 39 33 40 32 35 36 38 39 36 40 27 23 25 23 28 36 45 56 65 70 78 74 86 98 99 100 100 100 100 100 100 99 100 100 100 100 100 98 96 95
42 30 40 37 34 34 32 37 37 37 40 54 36 38 28 26 30 25 36 45 54 64 68 66 77 85 95 100 100 100 100 100 100 99 99 99 98 99 99 98 93 91 90 90
50 48 40 36 39 35 36 42 55 54 62 54 34 37 30 28 30 33 38 45 56 74 76 63 63 69 87 98 100 100 99 100 99 100 100 98 96 93 92 92 92 91 86 80
44 42 43 40 42 38 41 40 52 61 46 36 38 45 27 36 42 44 42 48 59 66 75 70 70 74 85 89 93 99 99 98 95 97 97 96 90 86 85 81 80 88 87 90
45 43 38 38 37 36 42 49 35 48 44 54 37 27 22 44 47 50 50 55 57 59 64 67 72 76 74 76 82 82 83 88 99 100 99 89 92 93 96 89 98 100 96 100
40 42 33 34 38 37 39 34 56 61 85 70 36 32 29 42 44 48 55 53 54 55 61 71 74 74 64 67 70 74 76 80 87 98 100 100 100 100 100 99 98 98 98 96
41 45 35 38 45 40 48 51 50 49 54 58 51 34 33 34 34 44 47 47 47 50 54 68 66 59 58 60 62 68 72 78 89 96 99 99 100 99 99 100 100 100 94 89
46 51 49 34 26 26 29 36 43 68 56 64 54 49 26 34 35 40 42 45 43 43 44 52 54 53 54 56 58 62 65 71 76 80 84 92 99 100 100 100 94 89 86 83
51 62 57 43 36 36 44 36 34 38 50 57 66 53 23 34 38 40 43 44 44 41 42 45 49 51 53 54 55 57 61 63 70 77 89 99 100 100 100 99 93 93 89 83
55 47 50 45 38 49 56 46 41 46 74 67 59 44 33 38 45 40 44 43 38 39 42 43 46 50 52 53 55 57 63 67 77 84 88 94 99 98 99 100 100 100 95 88
55 69 52 45 41 39 44 48 44 47 48 77 53 49 38 36 40 43 42 44 35 37 39 43 44 47 48 53 58 63 68 76 82 83 86 90 97 96 95 96 95 93 88 80
90 100 80 80 48 52 68 54 42 43 47 56 65 77 46 44 47 44 42 44 48 46 43 37 34 37 41 48 59 69 72 80 83 82 86 93 92 88 89 90 87 86 82 79
97 100 99 95 60 61 96 89 65 55 47 55 84 64 47 49 47 54 58 62 72 73 49 35 31 32 39 40 48 52 65 76 82 82 86 97 91 93 93 90 87 89 91 91
94 98 89 79 56 94 44 26 34 37 37 38 43 44 40 40 44 51 48 57 75 69 55 45 41 38 35 40 42 52 61 74 81 84 94 95 94 93 96 92 93 98 96 86
67 67 89 88 65 53 39 32 58 64 46 60 55 45 47 45 46 48 45 53 59 62 75 75 68 63 58 49 45 54 61 72 82 92 98 89 85 80 92 86 83 76 74 69
61 81 94 89 86 72 59 57 49 56 79 97 73 60 51 42 62 50 34 34 43 47 51 84 78 71 61 56 52 63 72 77 91 99 94 84 75 70 81 79 77 74 71 70
81 87 89 73 85 63 56 50 53 85 88 86 84 79 54 55 42 37 34 37 34 53 49 48 56 82 72 59 62 70 97 100 88 98 96 89 86 76 77 76 84 72 72 73
40 49 58 78 74 74 50 42 66 58 43 65 54 37 33 30 33 73 56 48 32 30 36 39 53 60 79 95 64 64 92 99 100 100 100 90 89 97 90 94 98 93 91 98
48 33 37 33 37 31 27 25 34 39 35 33 35 33 40 44 61 91 79 58 40 31 33 38 47 64 80 89 73 93 90 100 100 100 100 99 100 100 100 100 100 100 100 100
33 28 43 40 30 25 22 21 20 20 26 25 25 28 31 70 97 99 79 57 39 29 29 41 51 61 81 96 87 84 100 100 100 100 100 100 100 100 100 100 100 100 100 100
38 35 43 41 31 24 22 20 21 24 27 29 28 29 31 33 39 39 42 39 36 41 39 41 52 60 76 93 100 99 100 100 100 100 100 100 100 100 100 100 100 100 100 100
32 35 46 46 26 29 30 27 28 32 34 34 35 35 32 32 34 32 41 39 37 45 55 57 50 63 77 95 100 100 100 100 100 100 100 100 100 100 100 100 100 100 99 99

GFSCGP_925_rhum_183.txt.gz
RH
32 32 28 23 20 19 20 21 21 18 14 14 15 15 14 13 14 15 14 15 15 15 14 14 16 23 23 28 36 45 57 76 78 82 88 87 87 95 97 100 99 100 98 94
31 39 26 21 20 22 23 24 23 19 16 17 18 18 16 16 16 15 15 15 16 15 15 14 22 31 30 34 42 49 62 84 86 96 97 97 99 99 99 98 100 100 100 98
35 26 22 26 27 28 27 28 25 23 20 20 23 24 19 15 16 14 15 16 17 16 17 20 27 28 39 42 47 71 83 92 98 100 100 100 100 100 100 100 100 100 98 95
29 23 26 28 31 29 35 23 25 27 32 36 25 37 26 21 18 17 17 22 23 23 28 29 36 30 31 49 59 84 95 99 99 100 100 98 99 99 100 100 100 99 97 95
32 29 32 37 32 28 33 26 28 29 33 35 30 32 19 18 19 18 20 25 29 34 38 39 44 47 55 82 99 98 100 100 100 100 100 100 100 100 100 100 99 100 98 93
38 27 29 30 27 28 27 32 33 33 34 44 29 29 22 18 24 22 22 28 32 39 41 42 53 63 78 98 99 100 100 100 100 100 100 99 99 100 100 100 100 96 89 85
47 40 30 32 35 30 32 39 46 47 48 44 22 27 23 22 21 25 28 30 36 43 43 43 46 50 71 90 100 100 100 100 100 100 100 99 100 99 99 99 92 88 88 88
46 46 35 30 37 32 35 35 42 50 40 27 23 30 23 26 27 27 27 25 34 46 49 45 46 52 65 81 92 100 100 100 100 99 99 98 98 96 94 90 87 89 89 90
33 30 27 28 30 30 31 40 29 38 35 43 30 22 17 31 32 32 33 35 39 42 47 47 50 54 59 66 78 85 88 93 98 100 100 100 99 93 94 96 97 99 100 100
30 37 29 29 28 28 30 26 42 45 65 54 27 23 20 25 30 35 37 38 37 39 42 45 49 55 54 59 66 69 71 79 93 97 100 100 100 100 100 100 100 99 99 96
32 36 28 30 38 31 36 38 37 35 43 53 44 28 17 29 28 28 30 33 34 37 40 45 48 50 51 55 60 62 64 72 86 92 96 98 97 99 100 99 99 100 100 100
32 38 41 32 22 21 23 27 33 64 52 42 47 46 19 20 20 21 25 27 30 34 36 41 43 43 47 49 52 57 60 66 78 81 91 94 97 99 99 99 100 99 97 96
36 51 47 37 27 24 29 29 26 34 43 55 64 51 22 20 20 25 27 25 28 32 34 37 41 41 41 44 45 49 54 59 65 73 81 91 96 96 98 99 100 97 94 87
50 45 44 46 34 32 38 34 32 36 60 53 47 36 26 24 26 26 26 27 28 38 35 34 40 39 40 41 43 45 49 52 57 62 78 90 93 95 99 100 100 98 91 86
48 57 43 37 33 31 32 34 33 38 38 59 48 41 31 26 24 26 35 34 33 38 52 47 42 40 40 41 41 44 47 51 55 60 68 80 87 92 95 96 96 95 91 85
53 87 59 64 44 41 49 39 34 29 30 30 32 31 21 20 22 28 32 34 66 82 82 69 53 60 69 71 46 43 46 57 59 60 67 79 90 91 95 96 97 95 90 85
97 97 100 93 52 53 81 58 45 37 32 33 54 38 29 30 30 31 33 35 41 52 67 67 64 55 41 46 59 60 51 55 70 68 74 86 88 90 92 90 88 88 85 81
100 100 96 92 62 94 44 27 26 31 35 55 52 43 47 43 52 41 37 53 49 52 70 79 79 75 78 77 63 71 59 71 69 74 77 91 89 89 90 86 84 88 86 83
79 95 99 91 80 49 35 34 47 50 48 63 60 59 53 44 39 43 43 41 38 41 51 57 77 82 85 80 66 62 70 72 78 80 83 93 88 99 91 89 87 90 94 92
52 69 93 93 85 81 39 51 40 45 70 62 56 59 62 56 62 63 44 38 34 29 30 48 56 58 60 65 63 56 54 59 73 86 89 93 90 95 97 93 92 100 100 99
74 93 88 72 75 47 36 40 38 70 61 49 50 46 48 56 55 43 35 32 27 30 27 23 28 46 56 59 62 58 60 62 69 79 99 100 100 99 97 98 98 100 100 100
53 65 63 62 68 64 35 36 52 45 34 33 26 25 29 30 31 46 35 31 24 22 21 24 24 29 36 69 80 78 62 74 88 94 99 100 100 100 100 99 100 100 100 100
47 32 37 30 33 35 24 24 20 18 22 24 22 21 23 26 37 58 55 49 45 36 27 21 23 25 33 43 64 73 81 80 99 100 100 100 100 100 100 100 100 100 100 100
26 22 32 32 26 24 21 18 16 14 14 14 16 20 24 48 87 94 52 42 40 37 28 25 22 22 29 36 55 75 77 99 100 100 100 100 100 100 100 100 100 100 100 100
34 30 33 34 26 23 21 16 16 19 21 22 22 24 26 28 29 29 32 29 28 28 27 27 33 37 34 37 55 77 100 100 100 100 100 100 100 100 100 100 100 100 100 98
26 29 41 42 25 25 21 19 20 27 29 28 29 30 29 28 30 30 32 32 31 32 31 31 33 45 46 46 56 87 100 100 100 100 100 100 100 100 100 100 100 100 99 98

GFSCGP_925_rhum_186.txt.gz
RH
31 34 31 24 20 18 17 20 20 17 14 16 18 17 14 12 12 14 13 14 14 14 14 13 15 19 23 22 22 52 66 71 77 76 74 75 74 75 88 84 91 93 86 82
32 39 24 19 18 19 20 23 24 20 17 18 18 19 16 16 16 16 15 15 15 16 15 16 24 29 34 27 29 48 67 74 74 76 74 78 87 97 96 96 93 98 88 94
33 25 23 25 25 26 25 26 26 26 22 19 21 23 19 15 14 15 15 17 20 21 28 27 32 28 31 42 43 44 67 77 78 83 81 93 99 100 100 100 97 96 98 98
28 21 22 23 26 24 31 22 24 27 28 34 22 36 25 20 18 17 19 29 25 24 27 29 37 35 38 70 69 55 71 83 86 86 89 92 97 98 99 98 99 99 100 100
31 27 26 26 25 22 31 24 26 28 32 34 32 34 26 16 17 17 23 26 30 33 35 34 39 42 56 80 91 86 88 95 95 92 91 99 99 100 100 100 100 100 100 100
29 21 22 23 26 26 24 29 29 31 34 50 36 33 27 22 23 23 27 30 32 37 37 36 47 57 73 90 99 100 100 100 100 100 100 99 99 99 100 100 100 100 99 98
47 40 29 28 36 29 29 36 50 50 51 51 26 25 26 23 24 25 28 29 35 40 40 40 46 52 69 84 97 100 100 100 100 100 100 100 100 100 100 100 99 98 93 90
54 56 41 34 38 38 34 36 46 49 45 34 22 29 24 24 22 22 23 24 33 40 43 44 40 46 61 80 96 99 100 100 100 100 100 100 100 100 100 98 98 90 87 86
41 45 25 31 31 31 34 40 30 40 36 42 31 23 18 28 30 29 27 27 30 37 41 44 41 47 56 71 83 96 99 100 100 100 100 100 100 100 100 100 96 99 99 100
35 46 30 27 27 28 33 25 44 45 60 59 34 27 22 26 32 32 33 33 32 31 36 42 43 48 52 60 73 84 90 96 98 99 100 100 100 100 100 100 100 100 99 99
34 38 38 31 34 34 34 38 35 35 42 60 55 36 18 28 28 26 23 27 32 33 37 40 42 46 50 56 67 69 81 91 99 99 99 99 99 99 99 98 98 99 99 97
34 37 43 38 30 24 25 33 35 56 48 42 47 48 22 24 24 28 24 24 24 24 33 36 42 46 48 57 63 65 73 90 93 93 98 97 97 97 98 98 99 99 99 99
43 54 54 46 37 29 32 29 26 34 46 60 67 52 25 24 26 26 27 24 28 29 30 34 42 47 46 52 55 58 64 80 88 90 95 94 99 97 98 97 97 96 99 94
49 45 48 56 43 37 45 34 28 32 55 53 56 47 36 30 28 25 25 25 30 32 37 62 74 72 51 49 47 50 58 63 75 86 89 97 94 94 94 96 97 98 94 94
50 60 45 39 34 33 33 34 31 39 40 56 45 46 37 33 31 27 23 22 26 56 56 62 62 79 74 85 87 71 52 58 64 77 84 91 87 95 92 98 100 98 94 86
51 85 59 63 43 40 47 38 35 32 32 34 37 41 29 27 25 28 25 24 28 31 59 64 69 70 71 67 70 80 77 78 79 83 86 91 91 100 98 97 98 95 91 85
90 92 93 91 55 56 81 60 48 40 33 35 50 38 34 37 40 43 46 51 61 66 62 59 60 60 68 71 82 76 80 85 87 97 82 90 95 99 100 99 98 98 93 87
100 98 99 94 68 95 44 29 31 37 41 52 52 60 50 47 44 45 43 43 40 41 49 54 58 68 78 76 82 80 79 77 77 93 98 97 94 94 98 97 98 96 93 86
91 99 99 94 80 60 46 37 44 52 55 55 54 52 49 46 45 50 43 40 39 37 46 53 41 45 54 68 69 67 73 71 76 89 85 98 96 97 99 96 94 93 93 86
82 81 93 97 94 83 53 44 38 41 67 50 47 47 44 42 64 55 45 40 38 33 32 37 30 42 44 47 52 57 66 68 66 66 77 73 97 94 95 92 89 90 89 84
96 99 92 92 93 75 35 37 34 64 66 43 37 32 33 42 38 36 38 38 34 34 32 27 26 29 27 33 41 55 61 67 66 62 71 92 100 97 96 96 97 96 98 98
66 75 76 69 70 77 41 39 48 47 28 24 26 31 35 33 34 44 36 35 34 34 33 32 30 27 27 27 54 67 69 68 70 75 76 94 99 100 99 100 100 100 100 100
82 60 58 55 58 42 29 26 22 21 25 23 22 21 21 28 42 62 51 45 38 32 30 30 31 31 26 27 30 41 54 64 75 97 100 100 100 100 100 100 100 100 100 100
32 25 38 36 26 23 21 20 19 17 19 15 19 22 25 41 68 74 53 42 36 29 25 25 30 33 29 28 34 33 52 69 94 99 100 100 100 100 100 100 100 100 100 100
39 29 36 38 27 24 22 19 21 17 18 20 21 25 27 29 30 30 31 30 30 28 27 27 27 29 29 28 32 39 57 74 92 100 100 100 100 100 100 100 100 100 100 99
27 33 49 52 30 33 29 20 16 20 22 24 26 30 32 33 35 35 38 38 35 33 31 30 30 30 31 32 33 41 60 85 96 100 100 100 100 100 100 100 100 100 99 100